Terug naar catalogus

STARLINK-32652

ActiefCommunicatieVLEO
NORAD 62234·PAYLOAD·🇺🇸 United States

Gelanceerd Dec 5, 2024 vanaf Vandenberg Space Force Base

Loading…

Volgende Passages (komende 24 uur)

TLE

VersSource: CelesTrak SupGP

Epoch: Sep 14, 2026, 20:34 UTC

1 62234C 24231S   26257.85743056  .00028871  00000+0  92870-3 0  2570
2 62234  53.1590  60.1047 0001092  74.5254 260.0962 15.31678344    17

Volg STARLINK-32652 in realtime met AllMySat

Download on the App Store